Smithville, OH

7:08 AM EST on February 11, 2016 (GMT -0500)
Wayne County

Weather History for KBJJ - June, 2013

Change the Weather History Date:

Thursday, June 20, 2013

  Actual Average Record
Temperature  
Mean Temperature 64 °F -  
Max Temperature 79 °F 78 °F 89 °F (2012)
Min Temperature 50 °F 56 °F 46 °F (2004)
Growing Degree Days 14 (Base 50)    
Moisture  
Dew Point 52 °F    
Average Humidity 63    
Maximum Humidity 93    
Minimum Humidity 39    
Precipitation  
Precipitation 0.00 in - - ()
Sea Level Pressure  
Sea Level Pressure 30.22 in    
Wind  
Wind Speed 1 mph (SSE)    
Max Wind Speed 7 mph    
Max Gust Speed -    
Visibility 10 miles    
Events      
Averages and records for this station are not official NWS values.
T = Trace of Precipitation, MM = Missing Value Source: NWS Daily Summary

Daily Weather History Graph

Daily Weather History Graph

Search for Another Location

Airport or City:

Trip Planner

Search our weather history database for the weather conditions in past years. The results will help you decide how hot, cold, wet, or windy it might be!

Date:

Astronomy

Jun. 20, 2013 Rise Set
Actual Time 5:55 AM EDT 9:02 PM EDT
Civil Twilight 5:22 AM EDT 9:36 PM EDT
Nautical Twilight 4:39 AM EDT 10:19 PM EDT
Astronomical Twilight 3:48 AM EDT 11:09 PM EDT
Moon 6:02 PM EDT (6/20) 3:22 AM EDT (6/20)
Length of Visible Light 16h 13m
Length of Day
15h 06m
Waxing Gibbous, 89% of the Moon is Illuminated
Jun 20
Waxing Gibbous
Jun 23
Full
Jun 30
Last Quarter
Jul 8
New
Jul 15
First Quarter

Hourly Weather History & Observations

Time (EDT) Temp. Dew Point Humidity Pressure Visibility Wind Dir Wind Speed Gust Speed Precip Events Conditions
12:56 AM 55.0 °F 48.9 °F 80% 30.19 in 10.0 mi Calm Calm - N/A   Clear
1:56 AM 54.0 °F 48.9 °F 83% 30.18 in 10.0 mi Calm Calm - N/A   Clear
2:56 AM 52.0 °F 48.0 °F 86% 30.18 in 10.0 mi Calm Calm - N/A   Clear
3:56 AM 51.1 °F 48.0 °F 89% 30.20 in 10.0 mi Calm Calm - N/A   Clear
4:56 AM 51.1 °F 48.0 °F 89% 30.19 in 10.0 mi Calm Calm - N/A   Clear
5:56 AM 50.0 °F 46.9 °F 89% 30.21 in 8.0 mi Calm Calm - N/A   Clear
6:56 AM 52.0 °F 50.0 °F 93% 30.22 in 6.0 mi Calm Calm - N/A   Clear
7:56 AM 57.9 °F 52.0 °F 81% 30.23 in 9.0 mi Calm Calm - N/A   Clear
8:56 AM 64.0 °F 54.0 °F 70% 30.25 in 10.0 mi South 3.5 mph - N/A   Clear
9:56 AM 69.1 °F 52.0 °F 54% 30.25 in 10.0 mi SSW 4.6 mph - N/A   Clear
10:56 AM 72.0 °F 48.9 °F 44% 30.25 in 10.0 mi Calm Calm - N/A   Clear
11:56 AM 73.9 °F 48.9 °F 41% 30.24 in 10.0 mi Calm Calm - N/A   Clear
12:56 PM 75.0 °F 51.1 °F 43% 30.23 in 10.0 mi WNW 4.6 mph - N/A   Clear
1:56 PM 75.9 °F 53.1 °F 45% 30.22 in 10.0 mi SW 6.9 mph - N/A   Clear
2:56 PM 78.1 °F 52.0 °F 40% 30.23 in 10.0 mi Calm Calm - N/A   Clear
3:56 PM 77.0 °F 53.1 °F 43% 30.22 in 10.0 mi East 3.5 mph - N/A   Clear
4:56 PM 78.1 °F 51.1 °F 39% 30.22 in 10.0 mi Calm Calm - N/A   Clear
5:56 PM 79.0 °F 54.0 °F 42% 30.21 in 10.0 mi ENE 5.8 mph - N/A   Clear
6:56 PM 78.1 °F 53.1 °F 42% 30.21 in 10.0 mi ESE 4.6 mph - N/A   Clear
7:56 PM 75.9 °F 53.1 °F 45% 30.20 in 10.0 mi Calm Calm - N/A   Clear
8:56 PM 71.1 °F 55.9 °F 59% 30.19 in 10.0 mi ESE 5.8 mph - N/A   Clear
9:56 PM 66.9 °F 57.0 °F 70% 30.21 in 10.0 mi Calm Calm - N/A   Clear
10:56 PM 64.9 °F 57.0 °F 75% 30.22 in 10.0 mi Calm Calm - N/A   Clear
11:56 PM 63.0 °F 57.0 °F 81% 30.23 in 9.0 mi Calm Calm - N/A   Clear